User: anonymous   Login
Location: Caltech
(34.1382°N, 118.1253°W)
Time: 02:49:02
(UTC-08:00)
Language:

Courier 1B - Orbit

View from above orbital plane
View from above orbital plane
View from above satellite
View from above satellite

Ground track
Ground track

The orbit data is extracted from the following two-line orbital elements,

1 00058U 60013A   16040.56872149  .00000101  00000-0  19823-4 0  9995
2 00058  28.3269 240.4136 0165083 226.6514 132.0168 13.46300213724731
Epoch (UTC): 09 February 2016 13:38:57
Eccentricity: 0.0165083
inclination: 28.3269°
perigee height: 962 km
apogee height: 1209 km
right ascension of ascending node: 240.4136°
argument of perigee: 226.6514°
revolutions per day: 13.46300213
mean anomaly at epoch: 132.0168°
orbit number at epoch: 72473

The dashed part of the orbit path shows where the satellite is in the earth's shadow,  

DLR